Location: Doughton Park
(36.4224°N, 81.1835°W)
Time: 06:12:37
(UTC-04:00)

Amateur Radio Satellites - All Passes

Search period start: 25 October 2014 05:42
Search period end: 26 October 2014 05:42
Location: Doughton Park, 36.4224°N, 81.1835°W

Satellite Date Start Highest point End Downlink Frequencies (MHz)
Time Altitude Azimuth
PCSat 25 Oct 05:48:25 05:52:25 21° 309° (NW) 05:56:27 145.825 MHz
OPAL 25 Oct 06:06:21 06:11:26 60° 257° (WSW) 06:16:30 ?
STRAND 1 25 Oct 06:14:43 06:17:45 16° 64° (ENE) 06:20:48 ?
Hamsat 25 Oct 06:24:17 06:27:29 21° 95° (E) 06:30:41 145.90 MHz
RS-15 25 Oct 06:40:00 06:50:01 36° 44° (NE) 07:00:20 29.354 - 29.394 USB, Beacon 29.352 USB
JAS-2 25 Oct 06:56:32 07:04:24 81° 103° (ESE) 07:12:09 435.800 - 435.900 CW/SSB, 435.910 FM
Uosat F 25 Oct 07:00:46 07:04:37 23° 293° (WNW) 07:08:28 435.120 FM
Saudisat 1A 25 Oct 07:11:53 07:15:18 23° 111° (ESE) 07:18:45 436.775 MHz
AO-7 25 Oct 07:13:30 07:20:39 34° 299° (WNW) 07:27:49 29.400 - 29.500 MHz
SO-67 25 Oct 07:28:17 07:29:06 11° 92° (E) 07:29:55 435.3500 MHz FM
PANSAT 25 Oct 07:45:34 07:48:03 17° 166° (SSE) 07:50:32 not established
STRAND 1 25 Oct 07:51:24 07:56:25 57° 259° (W) 08:01:30 ?
Hamsat 25 Oct 07:59:50 08:03:23 27° 289° (WNW) 08:06:56 145.90 MHz
JAS-2 25 Oct 08:43:07 08:48:30 21° 299° (WNW) 08:53:55 435.800 - 435.900 CW/SSB, 435.910 FM
Saudisat 1A 25 Oct 08:50:45 08:54:41 32° 307° (NW) 08:58:39 436.775 MHz
RS-15 25 Oct 08:52:02 09:03:08 68° 246° (WSW) 09:14:44 29.354 - 29.394 USB, Beacon 29.352 USB
SO-67 25 Oct 08:59:03 09:02:11 33° 286° (WNW) 09:05:18 435.3500 MHz FM
PANSAT 25 Oct 09:24:31 09:27:40 24° 178° (S) 09:30:49 not established
HO-68 25 Oct 09:31:18 09:37:24 29° 96° (E) 09:43:27 435.675 MHz FM
Oscar 11 25 Oct 10:16:34 10:19:40 19° 94° (E) 10:22:45 145.825 FM, Beacon 2401.500 USB
MaSat-1 25 Oct 10:39:28 10:41:25 20° 253° (WSW) 10:43:17 437.345 MHz
KITSAT 1 25 Oct 11:03:28 11:07:59 16° 101° (E) 11:12:30 435.175 FM
PANSAT 25 Oct 11:04:32 11:07:19 19° 191° (S) 11:10:05 not established
ZACube-1 25 Oct 11:06:41 11:10:22 28° 96° (E) 11:13:59 437.345 MHz
RS-15 25 Oct 11:10:11 11:13:27 12° 263° (W) 11:16:45 29.354 - 29.394 USB, Beacon 29.352 USB
UKube-1 25 Oct 11:10:29 11:14:52 90° 92° (E) 11:19:14 145.840 MHz, 145.915 MHz
HO-68 25 Oct 11:18:25 11:25:14 48° 292° (WNW) 11:32:02 435.675 MHz FM
FUNcube-1 25 Oct 11:50:54 11:55:08 81° 284° (WNW) 11:59:17 145.950 - 145.970 MHz USB
Oscar 11 25 Oct 11:52:05 11:55:52 31° 289° (WNW) 11:59:39 145.825 FM, Beacon 2401.500 USB
ISS 25 Oct 12:20:33 12:23:34 32° 133° (SE) 12:26:35 145.800 FM
Sapphire 25 Oct 12:32:33 12:36:00 17° 48° (NE) 12:39:25 437.095 MHz 1200 baud AX-25 AFSK
Oscar 10/S400 25 Oct 12:37:48 12:59:19 32° 152° (SSE) 13:15:46 145.825 - 145.975 CW/USB, Beacon 145.810 USB
JAS-1B 25 Oct 12:43:15 12:44:31 11° 59° (ENE) 12:45:46 435.800 - 435.900 CW/SSB
ZACube-1 25 Oct 12:43:29 12:46:34 20° 292° (WNW) 12:49:37 437.345 MHz
SO-50 25 Oct 12:53:05 12:57:17 42° 115° (ESE) 13:01:37 436.795 FM
KITSAT 1 25 Oct 12:54:12 13:02:17 88° 297° (WNW) 13:10:25 435.175 FM
PCSat 25 Oct 12:54:17 12:58:50 26° 53° (NE) 13:03:21 145.825 MHz
Oscar 16 25 Oct 13:18:20 13:22:33 26° 68° (ENE) 13:26:46 437.025 USB, Beacon 2401.1428
Uribyol 2 25 Oct 13:39:56 13:43:22 18° 64° (ENE) 13:46:48 436.500 FM
ITAMSAT 1 25 Oct 13:45:56 13:49:32 19° 65° (ENE) 13:53:08 435.822 SSB
ISS 25 Oct 13:57:29 14:00:17 24° 328° (NNW) 14:03:04 145.800 FM
Gurwin Techsat 1B 25 Oct 14:09:47 14:13:05 17° 64° (ENE) 14:16:23 435.225 FM
Oscar 19 25 Oct 14:10:33 14:15:42 84° 76° (ENE) 14:20:52 437.125 CW, 437.150 USB
UOSAT-12 25 Oct 14:13:58 14:17:45 26° 111° (ESE) 14:21:36 437.025 FM, 437.400 FM
Sapphire 25 Oct 14:14:32 14:19:57 71° 246° (WSW) 14:25:19 437.095 MHz 1200 baud AX-25 AFSK
TMSAT-1 25 Oct 14:20:53 14:23:56 16° 63° (ENE) 14:26:59 436.925 FM
JAS-1B 25 Oct 14:28:22 14:34:28 85° 256° (WSW) 14:40:09 435.800 - 435.900 CW/SSB
AO-27 25 Oct 14:30:00 14:35:02 52° 72° (ENE) 14:40:06 436.795 MHz FM
AO-7 25 Oct 14:31:58 14:33:16 10° 47° (NE) 14:34:34 29.400 - 29.500 MHz
SO-50 25 Oct 14:34:40 14:38:01 20° 312° (NW) 14:41:27 436.795 FM
PCSat 25 Oct 14:37:18 14:42:20 40° 250° (WSW) 14:47:19 145.825 MHz
AO-Echo 25 Oct 14:46:25 14:51:17 86° 257° (WSW) 14:56:20 ?
KITSAT 1 25 Oct 14:53:02 14:58:49 21° 318° (NW) 15:04:38 435.175 FM
Oscar 16 25 Oct 14:57:06 15:01:43 33° 263° (W) 15:06:22 437.025 USB, Beacon 2401.1428
Uribyol 2 25 Oct 15:17:20 15:22:23 51° 260° (W) 15:27:29 436.500 FM
ITAMSAT 1 25 Oct 15:23:37 15:28:37 48° 260° (W) 15:33:40 435.822 SSB
Saudisat 1A 25 Oct 15:41:53 15:43:25 12° 43° (NE) 15:44:56 436.775 MHz
Gurwin Techsat 1B 25 Oct 15:47:21 15:52:32 56° 259° (W) 15:57:46 435.225 FM
UOSAT-12 25 Oct 15:53:35 15:57:44 32° 307° (NW) 16:01:59 437.025 FM, 437.400 FM
TMSAT-1 25 Oct 15:58:04 16:03:18 61° 259° (W) 16:08:33 436.925 FM
AO-40 25 Oct 15:58:52 23:33:55 46° 184° (S) 05:31:54 Beacon 2401.320
AO-27 25 Oct 16:11:35 16:14:48 17° 267° (W) 16:18:03 436.795 MHz FM
AO-7 25 Oct 16:16:14 16:24:14 56° 67° (ENE) 16:32:15 29.400 - 29.500 MHz
Uosat F 25 Oct 16:32:13 16:36:52 40° 71° (ENE) 16:41:34 435.120 FM
JAS-2 25 Oct 17:07:15 17:12:02 25° 63° (ENE) 17:17:16 435.800 - 435.900 CW/SSB, 435.910 FM
Hamsat 25 Oct 17:17:05 17:18:32 12° 66° (ENE) 17:19:59 145.90 MHz
Saudisat 1A 25 Oct 17:19:07 17:23:34 84° 241° (WSW) 17:27:58 436.775 MHz
AO-7 25 Oct 18:10:24 18:17:17 29° 263° (W) 18:24:14 29.400 - 29.500 MHz
Uosat F 25 Oct 18:12:07 18:15:46 20° 266° (W) 18:19:26 435.120 FM
OPAL 25 Oct 18:18:56 18:23:39 43° 101° (E) 18:28:19 ?
Hamsat 25 Oct 18:49:53 18:54:00 52° 260° (W) 18:58:06 145.90 MHz
JAS-2 25 Oct 18:51:04 18:56:38 46° 263° (W) 19:02:58 435.800 - 435.900 CW/SSB, 435.910 FM
ISS 25 Oct 18:51:31 18:53:58 19° 29° (NNE) 18:56:24 145.800 FM
SO-67 25 Oct 19:28:43 19:31:59 44° 75° (ENE) 19:35:17 435.3500 MHz FM
OPAL 25 Oct 19:58:41 20:02:11 20° 296° (WNW) 20:05:41 ?
HO-68 25 Oct 19:59:08 20:03:35 18° 58° (ENE) 20:08:02 435.675 MHz FM
STRAND 1 25 Oct 20:04:31 20:09:37 60° 101° (E) 20:14:40 ?
ISS 25 Oct 20:27:36 20:30:51 51° 225° (SW) 20:34:05 145.800 FM
KITSAT 1 25 Oct 20:50:47 20:57:46 31° 48° (NE) 21:04:41 435.175 FM
RS-15 25 Oct 21:03:34 21:11:33 24° 102° (ESE) 21:19:24 29.354 - 29.394 USB, Beacon 29.352 USB
Oscar 11 25 Oct 21:10:53 21:12:30 12° 65° (ENE) 21:14:08 145.825 FM, Beacon 2401.500 USB
SO-50 25 Oct 21:27:12 21:31:04 23° 50° (NE) 21:34:57 436.795 FM
HO-68 25 Oct 21:43:14 21:50:24 82° 255° (WSW) 21:57:37 435.675 MHz FM
STRAND 1 25 Oct 21:45:23 21:48:15 15° 297° (WNW) 21:51:07 ?
ZACube-1 25 Oct 22:01:03 22:04:20 20° 68° (ENE) 22:07:36 437.345 MHz
UKube-1 25 Oct 22:03:15 22:07:29 55° 74° (ENE) 22:11:46 145.840 MHz, 145.915 MHz
Oscar 11 25 Oct 22:43:57 22:48:11 55° 260° (W) 22:52:26 145.825 FM, Beacon 2401.500 USB
FUNcube-1 25 Oct 22:44:07 22:48:37 59° 75° (ENE) 22:53:05 145.950 - 145.970 MHz USB
KITSAT 1 25 Oct 22:45:41 22:53:35 60° 248° (WSW) 23:01:27 435.175 FM
UOSAT-12 25 Oct 22:46:31 22:49:02 14° 44° (NE) 22:51:32 437.025 FM, 437.400 FM
SO-50 25 Oct 23:07:12 23:11:46 42° 246° (WSW) 23:16:21 436.795 FM
RS-15 25 Oct 23:11:33 23:22:36 79° 301° (WNW) 23:33:35 29.354 - 29.394 USB, Beacon 29.352 USB
ZACube-1 25 Oct 23:36:15 23:40:28 35° 262° (W) 23:44:38 437.345 MHz
HO-68 25 Oct 23:36:48 23:38:59 11° 271° (W) 23:41:11 435.675 MHz FM
UKube-1 25 Oct 23:42:48 23:43:58 11° 268° (W) 23:45:09 145.840 MHz, 145.915 MHz
MaSat-1 26 Oct 00:12:05 00:16:15 73° 294° (WNW) 00:20:04 437.345 MHz
FUNcube-1 26 Oct 00:23:48 00:25:17 11° 269° (W) 00:26:46 145.950 - 145.970 MHz USB
UOSAT-12 26 Oct 00:25:01 00:29:43 74° 242° (WSW) 00:34:19 437.025 FM, 437.400 FM
RS-15 26 Oct 01:28:42 01:36:59 24° 327° (NNW) 01:45:21 29.354 - 29.394 USB, Beacon 29.352 USB
Oscar 16 26 Oct 01:35:35 01:36:00 10° 90° (E) 01:36:25 437.025 USB, Beacon 2401.1428
Oscar 10/S400 26 Oct 01:39:03 02:44:55 23° 243° (WSW) 05:31:26 145.825 - 145.975 CW/USB, Beacon 145.810 USB
JAS-1B 26 Oct 02:13:17 02:19:31 32° 98° (E) 02:26:41 435.800 - 435.900 CW/SSB
Oscar 19 26 Oct 02:25:03 02:29:45 36° 98° (E) 02:34:25 437.125 CW, 437.150 USB
AO-27 26 Oct 02:46:20 02:50:25 23° 95° (E) 02:54:29 436.795 MHz FM
AO-Echo 26 Oct 02:56:14 03:01:13 39° 98° (E) 03:06:08 ?
Oscar 16 26 Oct 03:10:44 03:15:52 77° 285° (WNW) 03:20:57 437.025 USB, Beacon 2401.1428
Sapphire 26 Oct 03:11:57 03:15:59 22° 106° (ESE) 03:20:01 437.095 MHz 1200 baud AX-25 AFSK
Uribyol 2 26 Oct 03:32:31 03:37:44 71° 102° (ESE) 03:42:53 436.500 FM
PCSat 26 Oct 03:33:15 03:38:11 38° 110° (ESE) 03:43:10 145.825 MHz
ITAMSAT 1 26 Oct 03:38:51 03:44:06 76° 103° (ESE) 03:49:17 435.822 SSB
RS-15 26 Oct 03:50:44 03:55:26 13° 4° (N) 04:00:12 29.354 - 29.394 USB, Beacon 29.352 USB
JAS-1B 26 Oct 04:03:38 04:10:04 45° 289° (WNW) 04:17:40 435.800 - 435.900 CW/SSB
Oscar 19 26 Oct 04:04:50 04:08:51 24° 293° (WNW) 04:12:52 437.125 CW, 437.150 USB
Gurwin Techsat 1B 26 Oct 04:06:02 04:11:22 73° 102° (ESE) 04:16:39 435.225 FM
TMSAT-1 26 Oct 04:16:27 04:21:45 67° 102° (ESE) 04:27:00 436.925 FM
AO-7 26 Oct 04:22:05 04:27:49 20° 94° (E) 04:33:31 29.400 - 29.500 MHz
AO-27 26 Oct 04:25:12 04:30:00 38° 290° (WNW) 04:34:46 436.795 MHz FM
AO-Echo 26 Oct 04:35:31 04:39:41 24° 293° (WNW) 04:43:50 ?
Uosat F 26 Oct 04:43:49 04:46:41 15° 93° (E) 04:49:32 435.120 FM
Sapphire 26 Oct 04:53:53 04:59:02 45° 302° (WNW) 05:04:14 437.095 MHz 1200 baud AX-25 AFSK
Uribyol 2 26 Oct 05:14:10 05:16:33 13° 298° (WNW) 05:18:56 436.500 FM
PCSat 26 Oct 05:17:04 05:21:39 27° 306° (NW) 05:26:16 145.825 MHz
ITAMSAT 1 26 Oct 05:20:49 05:22:53 12° 298° (WNW) 05:24:57 435.822 SSB
OPAL 26 Oct 05:31:11 05:36:15 60° 72° (ENE) 05:41:16 ?
